Location: Keewatin
(47.4004°N, 93.0827°W)
Time: 11:38:50
(UTC+00:00)

Envisat - Pass Details

Date: 16 December 2019
Orbit: 764 x 766 km, 98.1° (Epoch: 18 January)

Event Time Altitude Azimuth Distance (km) Brightness Sun altitude
Rises 12:36:28 0° 18° (NNE) 3,244 6.2 -12.4°
Reaches altitude 10° 12:38:52 10° 25° (NNE) 2,313 5.5 -12.0°
Maximum altitude 12:43:47 46° 98° (E) 1,017 4.2 -11.2°
Drops below altitude 10° 12:48:38 10° 172° (S) 2,295 5.9 -10.4°
Sets 12:51:01 0° 178° (S) 3,216 6.6 -10.1°
